Home   Weather   Pittsburgh   Past weeks

Flag for USA Past Weather in Pittsburgh, Pennsylvania, USA — Yesterday and Last 2 Weeks

48 °F


Feels Like: 44 °F
Forecast: 41 / 53 °F
Wind: 8 mph from Northwest

Location: Allegheny County Airport

Current Time: Oct 24, 2016 at 11:21:11 PM

Latest Report: Oct 24, 2016 at 10:53 PM

Visibility: 10 mi

Pressure: 30.32 "Hg

Humidity: 50%

Dew Point: 30 °F

Location of PittsburghLocation

Past Weather in Pittsburgh — Graph


Pittsburgh Temperature Yesterday

Maximum temperature yesterday: 64 °F (at 3:53 PM)
Minimum temperature yesterday: 42 °F (at 12:53 AM)
Average temperature yesterday: 53 °F

High & Low Weather Summary for the Past Weeks

High80 °F (Oct 20, 1:53 PM)93% (Oct 14, 8:53 AM)30.47 "Hg (Oct 14, 8:53 AM)
Low36 °F (Oct 14, 7:53 AM)35% (Oct 10, 3:53 PM)29.69 "Hg (Oct 21, 5:53 AM)
Average58 °F68%30.09 "Hg
* Reported Oct 9 9:53 PM — Oct 24 9:53 PM, Pittsburgh, Weather by CustomWeather, © 2016

Note: Actual official high and low records may vary slightly from our data, if they occured in-between our weather recording intervals... More about our weather records


Pittsburgh Weather History for the Previous 24 Hours

Scroll right to see more
Time TempWeatherWind HumidityBarometerVisibility
9:53 PM
Mon, Oct 24
48 °FOvercast.9 mph52%30.32 "Hg10 mi
8:53 PM48 °FOvercast.7 mph54%30.31 "Hg10 mi
7:53 PM49 °FPassing clouds.7 mph48%30.29 "Hg10 mi
6:53 PM50 °FPartly cloudy.10 mph52%30.27 "Hg10 mi
5:53 PM53 °FScattered clouds.13 mph47%30.24 "Hg10 mi
4:53 PM53 °FPartly sunny.8 mph48%30.22 "Hg10 mi
3:53 PM55 °FScattered clouds.17 mph44%30.20 "Hg10 mi
2:53 PM55 °FPartly sunny.13 mph47%30.19 "Hg10 mi
1:53 PM53 °FMore clouds than sun.14 mph55%30.18 "Hg10 mi
12:53 PM53 °FMostly cloudy.16 mph55%30.16 "Hg10 mi
12:03 PM55 °FBroken clouds.16 mph59%30.14 "Hg10 mi
11:53 AM54 °FCloudy.14 mph62%30.15 "Hg10 mi
10:53 AM54 °FMostly cloudy.7 mph69%30.14 "Hg10 mi
9:53 AM53 °FMostly cloudy.7 mph74%30.13 "Hg10 mi
8:53 AM52 °FPartly sunny.6 mph77%30.11 "Hg10 mi
7:53 AM51 °FScattered clouds.5 mph77%30.08 "Hg10 mi
6:53 AM52 °FOvercast.6 mph75%30.06 "Hg10 mi
5:53 AM53 °FOvercast.5 mph72%30.03 "Hg10 mi
4:53 AM54 °FPassing clouds.9 mph74%30.00 "Hg10 mi
3:53 AM59 °FPassing clouds.15 mph62%29.96 "Hg10 mi
2:53 AM59 °FClear.12 mph60%29.93 "Hg10 mi
1:53 AM61 °FClear.17 mph56%29.90 "Hg10 mi
12:53 AM62 °FPartly cloudy.20 mph52%29.88 "Hg10 mi
11:53 PM
Sun, Oct 23
62 °FPassing clouds.21 mph52%29.87 "Hg10 mi
Weather by CustomWeather, © 2016

See weather overviewHow to use our weather pages